QFA55 PAFA-PANC

Flight info

Callsign QFA55
Flight time 0h 51m
Altitude 31000
Route PUYVO5 PUYVO KROTO5
Aircraft B738/M-SDE2E3FGHIRWXY/LB1

Departure

Time 2026-05-01 13:36
Airport Fairbanks International Airport (PAFA)

Arrival

Time 2026-05-01 14:28
Airport Ted Stevens Anchorage International Airport (PANC)
Time Latitude Longitude Altitude Speed Heading
2026-05-01 13:17 64.81646 -147.86850 442 ft 0 kts 15°
2026-05-01 13:29 64.81619 -147.86864 443 ft 3 kts 14°
2026-05-01 13:30 64.81565 -147.86954 443 ft 0 kts 121°
2026-05-01 13:32 64.81553 -147.86912 443 ft 7 kts 126°
2026-05-01 13:33 64.81352 -147.86909 443 ft 16 kts 221°
2026-05-01 13:33 64.81139 -147.87303 443 ft 22 kts 218°
2026-05-01 13:34 64.80877 -147.87786 443 ft 25 kts 218°
2026-05-01 13:34 64.80602 -147.88285 443 ft 25 kts 218°
2026-05-01 13:35 64.80382 -147.88689 443 ft 11 kts 208°
2026-05-01 13:35 64.80322 -147.88681 443 ft 8 kts 147°
2026-05-01 13:35 64.80419 -147.88300 443 ft 45 kts 38°
2026-05-01 13:36 64.80823 -147.87561 443 ft 100 kts 38°
2026-05-01 13:36 64.81498 -147.86320 443 ft 145 kts 38°
2026-05-01 13:36 64.83195 -147.83210 1204 ft 162 kts 36°
2026-05-01 13:37 64.84124 -147.81535 1618 ft 174 kts 37°
2026-05-01 13:37 64.85112 -147.79805 2148 ft 179 kts 28°
2026-05-01 13:37 64.86363 -147.79339 2683 ft 190 kts 348°
2026-05-01 13:37 64.87497 -147.81044 3139 ft 206 kts 307°
2026-05-01 13:38 64.87454 -147.87843 4044 ft 233 kts 236°
2026-05-01 13:38 64.86457 -147.90850 4821 ft 234 kts 223°
2026-05-01 13:38 64.85205 -147.93471 5346 ft 250 kts 218°
2026-05-01 13:39 64.83856 -147.96182 5992 ft 258 kts 222°
2026-05-01 13:39 64.82624 -147.99296 6764 ft 263 kts 228°
2026-05-01 13:39 64.81485 -148.02704 7525 ft 268 kts 230°
2026-05-01 13:39 64.80351 -148.06201 8278 ft 271 kts 230°
2026-05-01 13:40 64.79179 -148.09687 9018 ft 274 kts 229°
2026-05-01 13:40 64.77965 -148.13158 9759 ft 277 kts 228°
2026-05-01 13:40 64.76725 -148.16655 10314 ft 286 kts 228°
2026-05-01 13:40 64.75416 -148.20343 10649 ft 303 kts 228°
2026-05-01 13:41 64.74038 -148.24245 10962 ft 320 kts 229°
2026-05-01 13:41 64.72606 -148.28325 11535 ft 327 kts 229°
2026-05-01 13:41 64.71150 -148.32438 12317 ft 329 kts 226°
2026-05-01 13:41 64.69457 -148.36038 13098 ft 330 kts 216°
2026-05-01 13:42 64.67551 -148.39060 13877 ft 333 kts 213°
2026-05-01 13:42 64.65611 -148.42054 14655 ft 336 kts 213°
2026-05-01 13:42 64.63649 -148.45057 15424 ft 339 kts 213°
2026-05-01 13:42 64.61670 -148.48089 16188 ft 342 kts 213°
2026-05-01 13:43 64.59674 -148.51155 16943 ft 345 kts 213°
2026-05-01 13:43 64.57660 -148.54249 17673 ft 349 kts 213°
2026-05-01 13:43 64.55627 -148.57367 18398 ft 352 kts 213°
2026-05-01 13:43 64.53572 -148.60509 19079 ft 356 kts 213°
2026-05-01 13:44 64.51494 -148.63678 19737 ft 359 kts 213°
2026-05-01 13:44 64.49365 -148.66916 20392 ft 363 kts 213°
2026-05-01 13:44 64.47242 -148.70143 21014 ft 367 kts 213°
2026-05-01 13:44 64.45099 -148.73395 21597 ft 371 kts 213°
2026-05-01 13:45 64.42927 -148.76684 22170 ft 374 kts 213°
2026-05-01 13:45 64.40737 -148.79994 22731 ft 378 kts 213°
2026-05-01 13:45 64.38527 -148.83326 23273 ft 381 kts 213°
2026-05-01 13:45 64.36295 -148.86683 23798 ft 384 kts 213°
2026-05-01 13:46 64.34043 -148.90062 24306 ft 388 kts 212°
2026-05-01 13:46 64.31774 -148.93463 24817 ft 390 kts 212°
2026-05-01 13:46 64.29495 -148.96888 25297 ft 393 kts 213°
2026-05-01 13:46 64.27209 -149.00363 25772 ft 395 kts 213°
2026-05-01 13:47 64.24911 -149.03869 26231 ft 397 kts 212°
2026-05-01 13:47 64.22606 -149.07369 26684 ft 398 kts 212°
2026-05-01 13:47 64.20284 -149.10871 27112 ft 400 kts 212°
2026-05-01 13:47 64.17952 -149.14372 27518 ft 401 kts 212°
2026-05-01 13:48 64.15608 -149.17886 27913 ft 403 kts 212°
2026-05-01 13:48 64.13259 -149.21404 28285 ft 404 kts 212°
2026-05-01 13:48 64.10901 -149.24927 28638 ft 405 kts 211°
2026-05-01 13:48 64.08524 -149.28474 28804 ft 410 kts 211°
2026-05-01 13:49 64.06040 -149.31708 29046 ft 412 kts 203°
2026-05-01 13:49 64.03335 -149.33898 29318 ft 413 kts 193°
2026-05-01 13:49 64.00539 -149.35293 29692 ft 410 kts 192°
2026-05-01 13:49 63.97746 -149.36611 30055 ft 409 kts 192°
2026-05-01 13:50 63.94964 -149.37889 30416 ft 407 kts 191°
2026-05-01 13:50 63.92190 -149.39158 30728 ft 406 kts 191°
2026-05-01 13:50 63.89417 -149.40440 30871 ft 407 kts 191°
2026-05-01 13:51 63.83868 -149.43029 30838 ft 405 kts 191°
2026-05-01 13:51 63.78320 -149.45594 30831 ft 404 kts 191°
2026-05-01 13:52 63.72801 -149.48129 30821 ft 405 kts 191°
2026-05-01 13:52 63.67289 -149.50662 30853 ft 405 kts 192°
2026-05-01 13:53 63.61769 -149.53176 30860 ft 404 kts 192°
2026-05-01 13:53 63.53506 -149.56933 30770 ft 404 kts 191°
2026-05-01 13:54 63.50771 -149.58170 30515 ft 395 kts 191°
2026-05-01 13:54 63.48075 -149.59383 30247 ft 394 kts 191°
2026-05-01 13:54 63.45398 -149.60583 30004 ft 393 kts 191°
2026-05-01 13:54 63.42734 -149.61782 29796 ft 390 kts 192°
2026-05-01 13:55 63.40057 -149.62984 29509 ft 394 kts 189°
2026-05-01 13:55 63.37370 -149.64190 29321 ft 396 kts 190°
2026-05-01 13:55 63.34664 -149.65398 29061 ft 398 kts 191°
2026-05-01 13:55 63.31951 -149.66603 28858 ft 400 kts 192°
2026-05-01 13:56 63.26467 -149.69041 28853 ft 404 kts 191°
2026-05-01 13:56 63.20958 -149.71489 28863 ft 404 kts 191°
2026-05-01 13:57 63.16336 -149.73529 28857 ft 404 kts 191°
2026-05-01 13:57 63.09925 -149.76347 28859 ft 404 kts 191°
2026-05-01 13:58 63.04396 -149.78769 28863 ft 405 kts 191°
2026-05-01 13:58 62.98876 -149.81176 28868 ft 404 kts 191°
2026-05-01 13:59 62.93320 -149.83590 28873 ft 405 kts 191°
2026-05-01 13:59 62.87796 -149.85981 28880 ft 405 kts 191°
2026-05-01 14:00 62.82255 -149.88370 28886 ft 406 kts 191°
2026-05-01 14:00 62.76714 -149.90750 28892 ft 406 kts 190°
2026-05-01 14:01 62.71185 -149.93116 28894 ft 404 kts 191°
2026-05-01 14:01 62.65661 -149.95470 28900 ft 405 kts 190°
2026-05-01 14:02 62.62904 -149.96642 28387 ft 400 kts 190°
2026-05-01 14:02 62.60195 -149.97792 27837 ft 393 kts 191°
2026-05-01 14:02 62.57534 -149.98919 27318 ft 386 kts 191°
2026-05-01 14:02 62.54920 -150.00023 26811 ft 380 kts 191°
2026-05-01 14:03 62.52349 -150.01108 26314 ft 374 kts 191°
2026-05-01 14:03 62.49817 -150.02174 25824 ft 368 kts 191°
2026-05-01 14:03 62.47321 -150.03223 25341 ft 363 kts 191°
2026-05-01 14:03 62.44858 -150.04257 24865 ft 358 kts 191°
2026-05-01 14:04 62.42434 -150.05273 24396 ft 353 kts 191°
2026-05-01 14:04 62.40039 -150.06275 23933 ft 348 kts 191°
2026-05-01 14:04 62.37678 -150.07261 23476 ft 344 kts 191°
2026-05-01 14:04 62.36096 -150.07920 23169 ft 341 kts 191°
2026-05-01 14:05 62.33786 -150.08882 22722 ft 336 kts 191°
2026-05-01 14:05 62.31504 -150.09831 22279 ft 332 kts 191°
2026-05-01 14:05 62.29254 -150.10759 21842 ft 327 kts 190°
2026-05-01 14:05 62.27027 -150.11555 21413 ft 323 kts 189°
2026-05-01 14:06 62.24817 -150.12234 20988 ft 318 kts 188°
2026-05-01 14:06 62.22643 -150.12887 20569 ft 313 kts 188°
2026-05-01 14:06 62.20495 -150.13566 20157 ft 312 kts 189°
2026-05-01 14:06 62.18327 -150.14283 19740 ft 316 kts 189°
2026-05-01 14:07 62.16171 -150.15003 19322 ft 313 kts 189°
2026-05-01 14:07 62.14032 -150.15708 18909 ft 309 kts 189°
2026-05-01 14:07 62.11917 -150.16395 18501 ft 306 kts 188°
2026-05-01 14:08 62.07749 -150.17744 17697 ft 300 kts 188°
2026-05-01 14:08 62.05696 -150.18410 17300 ft 297 kts 188°
2026-05-01 14:08 62.03659 -150.19070 16905 ft 294 kts 188°
2026-05-01 14:08 62.01644 -150.19722 16515 ft 292 kts 188°
2026-05-01 14:09 61.99647 -150.20367 16166 ft 289 kts 188°
2026-05-01 14:09 61.97661 -150.21007 15824 ft 289 kts 188°
2026-05-01 14:09 61.95670 -150.21648 15453 ft 290 kts 188°
2026-05-01 14:09 61.93680 -150.22289 15074 ft 288 kts 188°
2026-05-01 14:10 61.91710 -150.22922 14691 ft 286 kts 188°
2026-05-01 14:10 61.89750 -150.23550 14307 ft 284 kts 188°
2026-05-01 14:10 61.87780 -150.24181 13923 ft 282 kts 188°
2026-05-01 14:10 61.85843 -150.24801 13551 ft 281 kts 188°
2026-05-01 14:11 61.83952 -150.25406 13180 ft 279 kts 188°
2026-05-01 14:11 61.80100 -150.26634 12447 ft 277 kts 188°
2026-05-01 14:11 61.78204 -150.27238 12087 ft 275 kts 187°
2026-05-01 14:12 61.76312 -150.27839 11715 ft 275 kts 187°
2026-05-01 14:12 61.74449 -150.28431 11590 ft 266 kts 187°
2026-05-01 14:12 61.72649 -150.29004 11479 ft 258 kts 187°
2026-05-01 14:12 61.70904 -150.29558 11375 ft 250 kts 187°
2026-05-01 14:13 61.69189 -150.29809 11239 ft 247 kts 177°
2026-05-01 14:13 61.68046 -150.29701 11041 ft 249 kts 177°
2026-05-01 14:13 61.65734 -150.29437 10664 ft 249 kts 176°
2026-05-01 14:13 61.64003 -150.29221 10378 ft 247 kts 175°
2026-05-01 14:14 61.62308 -150.29016 10106 ft 243 kts 175°
2026-05-01 14:14 61.60625 -150.28820 9828 ft 242 kts 175°
2026-05-01 14:14 61.58939 -150.28625 9560 ft 243 kts 174°
2026-05-01 14:14 61.57249 -150.28430 9293 ft 244 kts 174°
2026-05-01 14:15 61.55545 -150.28232 9030 ft 246 kts 174°
2026-05-01 14:15 61.53825 -150.28031 8757 ft 248 kts 174°
2026-05-01 14:15 61.52108 -150.27832 8470 ft 246 kts 174°
2026-05-01 14:15 61.50397 -150.27635 8196 ft 246 kts 174°
2026-05-01 14:16 61.48691 -150.27438 7918 ft 245 kts 174°
2026-05-01 14:16 61.46984 -150.27240 7642 ft 245 kts 174°
2026-05-01 14:16 61.45285 -150.27045 7370 ft 244 kts 174°
2026-05-01 14:16 61.43590 -150.26850 7105 ft 244 kts 174°
2026-05-01 14:17 61.41896 -150.26654 6836 ft 244 kts 174°
2026-05-01 14:17 61.40181 -150.26455 6560 ft 243 kts 175°
2026-05-01 14:17 61.38490 -150.26261 6287 ft 243 kts 174°
2026-05-01 14:17 61.36801 -150.26067 6010 ft 242 kts 174°
2026-05-01 14:18 61.35115 -150.25874 5739 ft 243 kts 174°
2026-05-01 14:18 61.33435 -150.25682 5474 ft 242 kts 174°
2026-05-01 14:18 61.31752 -150.25491 5202 ft 241 kts 175°
2026-05-01 14:18 61.30640 -150.25602 5042 ft 243 kts 187°
2026-05-01 14:19 61.28514 -150.27119 5023 ft 244 kts 200°
2026-05-01 14:19 61.26946 -150.28537 5009 ft 247 kts 201°
2026-05-01 14:19 61.25390 -150.30051 4994 ft 250 kts 210°
2026-05-01 14:19 61.24147 -150.32558 5012 ft 252 kts 236°
2026-05-01 14:20 61.23561 -150.36012 4864 ft 259 kts 264°
2026-05-01 14:20 61.23492 -150.43371 4428 ft 250 kts 269°
2026-05-01 14:20 61.23509 -150.46956 4141 ft 245 kts 269°
2026-05-01 14:21 61.23512 -150.50377 4077 ft 230 kts 268°
2026-05-01 14:21 61.23502 -150.53642 4019 ft 224 kts 268°
2026-05-01 14:21 61.23303 -150.56793 4016 ft 218 kts 244°
2026-05-01 14:22 61.20950 -150.60002 3963 ft 212 kts 173°
2026-05-01 14:22 61.19628 -150.59003 4033 ft 198 kts 144°
2026-05-01 14:22 61.18479 -150.57376 4026 ft 202 kts 144°
2026-05-01 14:22 61.17434 -150.55505 4011 ft 197 kts 128°
2026-05-01 14:23 61.16792 -150.53031 4004 ft 196 kts 107°
2026-05-01 14:23 61.16627 -150.50226 4004 ft 198 kts 91°
2026-05-01 14:23 61.16641 -150.47366 3996 ft 198 kts 91°
2026-05-01 14:23 61.16657 -150.44500 3916 ft 202 kts 91°
2026-05-01 14:24 61.16671 -150.41559 3647 ft 203 kts 91°
2026-05-01 14:24 61.16683 -150.38682 3380 ft 196 kts 90°
2026-05-01 14:24 61.16694 -150.35870 3121 ft 190 kts 90°
2026-05-01 14:24 61.16704 -150.33133 2870 ft 189 kts 90°
2026-05-01 14:25 61.16714 -150.30434 2621 ft 189 kts 90°
2026-05-01 14:25 61.16723 -150.27739 2374 ft 187 kts 90°
2026-05-01 14:25 61.16731 -150.25123 2126 ft 175 kts 90°
2026-05-01 14:25 61.16738 -150.22654 1907 ft 169 kts 90°
2026-05-01 14:26 61.16745 -150.20264 1687 ft 161 kts 90°
2026-05-01 14:26 61.16756 -150.15842 1271 ft 150 kts 91°
2026-05-01 14:26 61.16761 -150.13675 1081 ft 151 kts 91°
2026-05-01 14:27 61.16770 -150.11504 889 ft 152 kts 91°
2026-05-01 14:27 61.16776 -150.09300 673 ft 153 kts 90°
2026-05-01 14:27 61.16774 -150.07088 471 ft 154 kts 90°
2026-05-01 14:28 61.16787 -150.02748 163 ft 134 kts 90°
2026-05-01 14:28 61.16784 -150.01327 161 ft 68 kts 90°
2026-05-01 14:28 61.16787 -150.00472 161 ft 43 kts 90°
2026-05-01 14:28 61.16785 -150.00021 161 ft 27 kts 89°
2026-05-01 14:29 61.16820 -149.99668 161 ft 24 kts 67°
2026-05-01 14:29 61.16910 -149.99398 161 ft 22 kts 39°
2026-05-01 14:30 61.17239 -149.98820 161 ft 17 kts 15°
2026-05-01 14:30 61.17350 -149.98864 161 ft 16 kts 340°
2026-05-01 14:30 61.17446 -149.98936 161 ft 14 kts 340°
2026-05-01 14:31 61.17647 -149.99020 161 ft 17 kts 36°
2026-05-01 14:31 61.17683 -149.98801 161 ft 15 kts 113°
2026-05-01 14:31 61.17604 -149.98692 161 ft 14 kts 161°
2026-05-01 14:31 61.17550 -149.98630 161 ft 4 kts 117°
2026-05-01 14:32 61.17543 -149.98586 161 ft 4 kts 106°
2026-05-01 14:32 61.17541 -149.98551 161 ft 4 kts 95°
2026-05-01 14:32 61.17539 -149.98510 161 ft 0 kts 95°
2026-05-01 14:32 61.17538 -149.98479 161 ft 3 kts 96°
2026-05-01 14:33 61.17537 -149.98465 161 ft 0 kts 96°